Tracking 19247 objects as of 24-Sep-2018
HD Live streaming from Space Station
objects crossing your sky now

FENGYUN 1C DEB

Track FENGYUN 1C DEB now!
10-day predictions


NORAD ID: 36153
Int'l Code: 1999-025DSA
Perigee: 778.2 km
Apogee: 844.5 km
Inclination: 98.8 °
Period: 101.0 minutes
Semi major axis: 7182 km
RCS: 0.0062 m2 (small)
Launch date: May 10, 1999
Source: People's Republic of China (PRC)
Launch site: Taiyaun Space Center, China (TSC)

Note: This is SATELLITE DEBRIS
aabbcc
Your satellite tracking list
Your tracking list is empty




NASA's NSSDC Master Catalog

Two Line Element Set (TLE):
1 36153U 99025DSA 18265.93818465 +.00000553 +00000-0 +24644-3 0  9995
2 36153 098.7603 321.7860 0046161 250.3291 234.7229 14.26283145494394
Source of the keplerian elements: AFSPC